TimeCDT,TemperatureF,Dew PointF,Humidity,Sea Level PressureIn,VisibilityMPH,Wind Direction,Wind SpeedMPH,Gust SpeedMPH,PrecipitationIn,Events,Conditions,WindDirDegrees,DateUTC
12:15 AM,46.4,41.0,81,29.99,10.0,East,10.4,-,N/A,,Overcast,90,2012-10-23 05:15:00
12:35 AM,46.4,41.0,81,29.98,10.0,East,11.5,-,N/A,,Overcast,80,2012-10-23 05:35:00
12:55 AM,46.4,41.0,81,29.98,10.0,East,9.2,-,N/A,,Overcast,90,2012-10-23 05:55:00
1:15 AM,46.4,41.0,81,29.97,10.0,East,10.4,-,N/A,,Overcast,90,2012-10-23 06:15:00
1:35 AM,46.4,41.0,81,29.97,10.0,East,11.5,-,N/A,,Overcast,90,2012-10-23 06:35:00
2:55 AM,48.2,41.0,76,29.96,10.0,East,9.2,-,N/A,,Overcast,90,2012-10-23 07:55:00
3:15 AM,48.2,42.8,82,29.94,10.0,East,15.0,19.6,N/A,,Scattered Clouds,90,2012-10-23 08:15:00
3:35 AM,48.2,41.0,76,29.94,10.0,East,11.5,-,N/A,,Scattered Clouds,100,2012-10-23 08:35:00
3:55 AM,48.2,41.0,76,29.94,10.0,East,8.1,-,N/A,,Overcast,100,2012-10-23 08:55:00
4:15 AM,48.2,41.0,76,29.92,10.0,East,9.2,-,N/A,,Overcast,80,2012-10-23 09:15:00
4:35 AM,48.2,41.0,76,29.92,10.0,East,9.2,-,N/A,,Overcast,90,2012-10-23 09:35:00
5:15 AM,48.2,42.8,82,29.91,10.0,ENE,8.1,-,N/A,,Mostly Cloudy,70,2012-10-23 10:15:00
5:35 AM,48.2,41.0,76,29.91,10.0,East,10.4,-,N/A,,Overcast,90,2012-10-23 10:35:00
5:55 AM,48.2,42.8,82,29.91,10.0,East,9.2,-,N/A,,Overcast,80,2012-10-23 10:55:00
6:35 AM,48.2,42.8,82,29.92,10.0,East,8.1,-,0.02,Thunderstorm,Overcast,90,2012-10-23 11:35:00
7:15 AM,48.2,42.8,82,29.89,10.0,East,8.1,-,N/A,,Overcast,80,2012-10-23 12:15:00
7:35 AM,48.2,42.8,82,29.89,10.0,East,10.4,-,N/A,,Overcast,80,2012-10-23 12:35:00
8:15 AM,48.2,42.8,82,29.88,8.0,East,4.6,-,N/A,,Mostly Cloudy,90,2012-10-23 13:15:00
8:35 AM,48.2,44.6,87,29.89,10.0,NE,3.5,-,N/A,,Overcast,40,2012-10-23 13:35:00
8:55 AM,48.2,42.8,82,29.88,9.0,ENE,4.6,-,N/A,,Overcast,70,2012-10-23 13:55:00
9:15 AM,48.2,44.6,87,29.88,9.0,Calm,Calm,-,N/A,,Overcast,0,2012-10-23 14:15:00
9:35 AM,50.0,44.6,82,29.87,10.0,ENE,4.6,-,N/A,,Overcast,60,2012-10-23 14:35:00
9:55 AM,51.8,44.6,76,29.86,10.0,East,4.6,-,N/A,,Overcast,90,2012-10-23 14:55:00
10:15 AM,51.8,46.4,82,29.86,10.0,East,8.1,-,N/A,,Overcast,80,2012-10-23 15:15:00
10:55 AM,53.6,46.4,77,29.86,10.0,Calm,Calm,-,N/A,,Overcast,0,2012-10-23 15:55:00
11:15 AM,53.6,46.4,77,29.86,10.0,SE,4.6,-,0.01,Thunderstorm,Overcast,140,2012-10-23 16:15:00
11:35 AM,53.6,48.2,82,29.85,7.0,ESE,9.2,-,0.09,Thunderstorm,Thunderstorm,110,2012-10-23 16:35:00
11:55 AM,51.8,48.2,88,29.84,5.0,NNE,6.9,-,0.16,Thunderstorm,Overcast,20,2012-10-23 16:55:00
12:15 PM,51.8,48.2,88,29.85,7.0,ENE,3.5,-,0.02,Thunderstorm,Overcast,60,2012-10-23 17:15:00
12:35 PM,51.8,48.2,88,29.85,3.0,ESE,3.5,-,0.03,Thunderstorm,Overcast,110,2012-10-23 17:35:00
12:55 PM,53.6,48.2,82,29.84,2.0,East,5.8,-,0.03,,Overcast,100,2012-10-23 17:55:00
1:15 PM,53.6,50.0,88,29.83,3.0,ESE,5.8,-,N/A,,Overcast,110,2012-10-23 18:15:00
1:35 PM,53.6,48.2,82,29.82,3.0,East,8.1,-,0.01,,Overcast,90,2012-10-23 18:35:00
1:55 PM,53.6,48.2,82,29.82,2.0,East,6.9,-,0.01,,Overcast,80,2012-10-23 18:55:00
2:15 PM,53.6,50.0,88,29.81,2.0,East,5.8,-,N/A,,Overcast,90,2012-10-23 19:15:00
2:35 PM,53.6,51.8,94,29.81,5.0,ESE,5.8,-,N/A,,Overcast,120,2012-10-23 19:35:00
2:55 PM,55.4,51.8,88,29.80,7.0,ESE,8.1,-,N/A,,Overcast,120,2012-10-23 19:55:00
3:15 PM,55.4,51.8,88,29.80,8.0,ESE,5.8,-,N/A,,Overcast,120,2012-10-23 20:15:00
3:35 PM,55.4,51.8,88,29.80,10.0,ESE,6.9,-,N/A,,Overcast,120,2012-10-23 20:35:00
3:55 PM,55.4,51.8,88,29.79,10.0,ESE,6.9,-,N/A,,Overcast,120,2012-10-23 20:55:00
4:15 PM,55.4,51.8,88,29.79,5.0,ESE,5.8,16.1,N/A,,Overcast,110,2012-10-23 21:15:00
4:35 PM,55.4,51.8,88,29.79,10.0,East,5.8,-,N/A,,Overcast,100,2012-10-23 21:35:00
4:55 PM,55.4,51.8,88,29.78,10.0,ESE,6.9,-,N/A,,Overcast,110,2012-10-23 21:55:00
5:15 PM,55.4,51.8,88,29.78,10.0,ESE,8.1,-,N/A,,Overcast,110,2012-10-23 22:15:00
5:35 PM,55.4,51.8,88,29.78,8.0,ESE,4.6,-,N/A,,Overcast,110,2012-10-23 22:35:00
5:55 PM,55.4,51.8,88,29.78,10.0,SE,6.9,-,N/A,,Overcast,130,2012-10-23 22:55:00
6:15 PM,55.4,51.8,88,29.78,10.0,SE,9.2,16.1,N/A,,Overcast,130,2012-10-23 23:15:00
6:35 PM,55.4,51.8,88,29.77,10.0,SE,10.4,-,N/A,,Overcast,130,2012-10-23 23:35:00
6:55 PM,55.4,51.8,88,29.77,10.0,SE,10.4,17.3,N/A,,Overcast,140,2012-10-23 23:55:00
7:15 PM,55.4,51.8,88,29.77,10.0,SE,9.2,-,N/A,,Overcast,140,2012-10-24 00:15:00
7:35 PM,55.4,51.8,88,29.77,10.0,SE,8.1,17.3,N/A,,Overcast,140,2012-10-24 00:35:00
7:55 PM,57.2,51.8,82,29.77,10.0,SE,8.1,17.3,N/A,,Overcast,140,2012-10-24 00:55:00
8:15 PM,57.2,51.8,82,29.78,10.0,SSE,10.4,16.1,N/A,,Overcast,150,2012-10-24 01:15:00
8:35 PM,57.2,53.6,88,29.78,10.0,SSE,11.5,19.6,N/A,,Overcast,150,2012-10-24 01:35:00
8:55 PM,57.2,51.8,82,29.77,10.0,SSE,12.7,24.2,N/A,,Mostly Cloudy,150,2012-10-24 01:55:00
9:15 PM,57.2,53.6,88,29.77,10.0,SSE,16.1,23.0,N/A,,Overcast,160,2012-10-24 02:15:00
9:35 PM,57.2,53.6,88,29.77,10.0,SSE,15.0,23.0,N/A,,Mostly Cloudy,160,2012-10-24 02:35:00
9:55 PM,57.2,53.6,88,29.76,10.0,SSE,18.4,26.5,N/A,,Mostly Cloudy,160,2012-10-24 02:55:00
10:15 PM,57.2,53.6,88,29.76,10.0,SSE,16.1,21.9,N/A,,Mostly Cloudy,160,2012-10-24 03:15:00
10:35 PM,57.2,53.6,88,29.76,10.0,SSE,12.7,21.9,N/A,,Mostly Cloudy,160,2012-10-24 03:35:00
11:15 PM,57.2,53.6,88,29.77,10.0,South,9.2,-,N/A,,Overcast,170,2012-10-24 04:15:00
11:35 PM,57.2,53.6,88,29.78,10.0,South,5.8,-,N/A,,Overcast,190,2012-10-24 04:35:00
11:55 PM,59.0,53.6,82,29.79,8.0,South,9.2,-,N/A,,Overcast,190,2012-10-24 04:55:00